Regional Weather Roundup
Issued by NWS

Home | Current Version | Previous Version | Graphics & Text | Print | Product List | Glossary On
Versions: 1 2 3 4 5 6 7 8 9 10 11 12 13 14 15 16 17 18 19 20 21 22 23 24 25 26 27
000
ASUS45 KBOU 241507
RWRCO

WEATHER ROUNDUP FOR COLORADO
NATIONAL WEATHER SERVICE DENVER/BOULDER CO
900 AM MDT MON APR 24 2017

NOTE: "FAIR" INDICATES FEW OR NO CLOUDS BELOW 12000 FEET WITH NO
SIGNIFICANT WEATHER AND/OR OBSTRUCTIONS TO VISIBILITY.

COZ001>005-013-030-031-241600-
...NORTHWEST COLORADO...

CITY           SKY/WX    TMP DP  RH WIND       PRES   REMARKS
CRAIG          PTSUNNY   46  38  73 NE6       29.82F
HAYDEN         FAIR      43  34  70 E8        29.83F
MEEKER         FAIR      49  39  68 N5        29.82F
MOUNT WERNER   NOT AVBL
STEAMBOAT SPGS CLOUDY    39  36  87 E8        29.84F
WALDEN         NOT AVBL
$$

COZ006>008-011-241600-
...WEST CENTRAL VALLEYS...

CITY           SKY/WX    TMP DP  RH WIND       PRES   REMARKS
GRAND JUNCTION FAIR      57  34  41 SE3       29.78F
MONTROSE       FAIR      57  29  34 SE3       29.84F
EAGLE          MOSUNNY   46  36  66 CALM      29.85F
RIFLE          FAIR      53  37  54 CALM      29.80F
DELTA          FAIR      58  29  32 CALM      29.81F
NUCLA          FAIR      52  28  40 E7        29.88S
$$

COZ017>023-064>068-241600-
...SOUTHWEST COLORADO...

CITY           SKY/WX    TMP DP  RH WIND       PRES   REMARKS
DURANGO        FAIR      50  25  37 NE3       29.91R
CORTEZ         FAIR      49  30  48 NE5       29.87S
PAGOSA SPRINGS FAIR      52  19  26 SE5       29.95S
TELLURIDE        N/A     46  23  40 CALM      29.97F
WOLF CREEK PAS FAIR      32  18  55 S16G23    30.10F WCI  21
$$

COZ009-010-012-014-032>034-037-058>063-241600-
...CENTRAL COLORADO...

CITY           SKY/WX    TMP DP  RH WIND       PRES   REMARKS
ASPEN          FAIR      45  34  65 S3        29.85F
BUENA VISTA    FAIR      53  15  22 W14       29.83S
COPPER MTN     LGT SNOW  34  21  60 MISG      29.95F VSB 3/4
BERTHOUD PASS  FAIR      25  14  63 W36G43    29.91R WCI   7
COTTONWOOD PAS FAIR      46  10  23 W26G39    29.86S
GUNNISON       FAIR      50  26  39 SW7       29.88F
KREMMLING      FAIR      52  37  58 NW5       29.85F
LEADVILLE      FAIR      39  21  48 N9        29.89F
MONARCH PASS   FAIR      32  19  59 W40G46    30.09S WCI  16
SALIDA         CLOUDY    56  20  25 SW7       29.91S
SUNLIGHT       PTSUNNY   32  27  80 SW10G21   29.98F WCI  24
WILKERSON PASS FAIR      36  14  41 SW20G32   29.92S
$$

COZ069>075-241600-
...SAN LUIS VALLEY/SANGRE DE CRISTO MOUNTAINS...

CITY           SKY/WX    TMP DP  RH WIND       PRES   REMARKS
ALAMOSA        FAIR      57  18  21 S14       29.88F
LA VETA PASS   FAIR      45  18  33 SW24      30.03R
SAGUACHE       FAIR      54  21  28 NW8       29.88S
$$

COZ035-036-038>040-241600-
...NORTHERN COLORADO FRONT RANGE...

CITY           SKY/WX    TMP DP  RH WIND       PRES   REMARKS
DENVER INTL AP PTSUNNY   54  37  52 E9G20     29.71F
DMNS CITY PARK   N/A     55  37  51 E7G18     29.71S
AURORA         PTSUNNY   54  38  55 E12       29.73R
FRONT RANGE AP MOSUNNY   55  39  54 N12G18    29.73S
ERIE MUNI ARPT FAIR      55  37  51 NE5       29.71S
BOULDER MUN AP FAIR      54  37  54 S5        29.70F
CENTENNIAL     PTSUNNY   53  36  52 E13       29.72R
BROOMFIELD     PTSUNNY   54  37  54 NE12      29.72S
FORT COLLINS   FAIR      57  36  45 N15G22    29.69S
LONGMONT       PTSUNNY   58  40  51 S7        29.71F
$$

COZ041-046-047-076>085-087-088-241600-
...PIKES PEAK/PALMER DIVIDE AND SOUTHERN FOOTHILLS...

CITY           SKY/WX    TMP DP  RH WIND       PRES   REMARKS
COLO. SPRINGS  FAIR      60  29  30 SE13G18   29.73R
A. F. ACADEMY  FAIR      59  21  23 W15G24    29.73S
SCHRIEVER AFB  FAIR      60  25  26 SE6       29.74R
ELLICOTT       FAIR     N/A N/A N/A CALM      29.72R
FALCON         FAIR      59  21  23 W17G26    29.77R
FORT CARSON    FAIR      63  26  24 S10       29.71S
LIMON          FAIR      56  38  50 N14       29.72R
MONUMENT HILL  FAIR      55  28  35 W6        29.78R
TRINIDAD       FAIR      65  18  16 N3        29.74S
$$

COZ042>045-048>051-090-091-241600-
...NORTHEAST COLORADO...

CITY           SKY/WX    TMP DP  RH WIND       PRES   REMARKS
GREELEY ARPT   FAIR      57  33  40 N29G35    29.67F
AKRON          FAIR      57  32  38 N20G31    29.67S
BURLINGTON     NOT AVBL
WRAY           NOT AVBL
STERLING       FAIR      61  36  39 N26G32    29.63F
HOLYOKE        FAIR      61  39  44 NW21G29   29.63R
FORT MORGAN    FAIR      60  29  30 NW23G29   29.68R
$$

COZ086-089-092>099-241600-
...SOUTHEAST COLORADO...

CITY           SKY/WX    TMP DP  RH WIND       PRES   REMARKS
PUEBLO         FAIR      61  39  44 SE7       29.68S
LA JUNTA       FAIR      63  38  39 SE10      29.68F
LAMAR          FAIR      65  40  39 NE7       29.65S
SPRINGFIELD      N/A     69  30  23 W12G24    29.68S
$$




USA.gov is the U.S. government's official web portal to all federal, state and local government web resources and services.